Flag for Germany Weather past 2 weeks in Viernheim, Hesse, Germany

Now
45 °F

Passing clouds.


Feels Like: 40 °F
Forecast: 39 / 43 °F
Wind: 9 mph from Southwest

Location: Baden Wurttemberg - Neuostheim

Current Time: Dec 20, 2014 at 10:36:32 PM

Latest Report: Dec 20, 2014 at 7:50 PM


Visibility: N/A

Pressure: 30.27 "Hg

Humidity: 71%

Dew point: 36 °F

Location of ViernheimLocation

Historic Weather in Viernheim — Graph

°F

Viernheim temperature yesterday

Maximum temperature yesterday: 55 °F (at 12:20 AM)
Minimum temperature yesterday: 48 °F (at 8:50 PM)
Average temperature yesterday: 52 °F

Past Weeks' High & Low Weather Summary

 TemperatureHumidityPressure
High55 °F (Dec 18, 6:20 PM)100% (Dec 6, 7:50 AM)30.45 "Hg (Dec 6, 7:50 AM)
Low34 °F (Dec 8, 8:50 PM)57% (Dec 8, 1:50 PM)29.68 "Hg (Dec 12, 4:20 PM)
Average44 °F85%30.05 "Hg
* Reported Dec 5 7:20 PM — Dec 20 7:50 PM, Viernheim, Weather by CustomWeather, © 2014

Note: Actual official high and low records may vary slightly from our data, if they occured in-between our weather recording intervals... More about our weather records

Advertising

Viernheim weather history for previous 24 hours

 ConditionsComfort  
Time TempWeatherWind HumidityBarometerVisibility
7:50 PM
Dec 20
45 °FPassing clouds.9 mph71%30.27 "HgN/A
7:20 PM43 °FClear.12 mph76%30.27 "Hg10 mi
6:50 PM43 °FClear.12 mph76%30.24 "Hg10 mi
6:20 PM43 °FPassing clouds.12 mph81%30.24 "HgN/A
5:50 PM45 °FClear.12 mph76%30.24 "Hg10 mi
5:20 PM45 °FPassing clouds.12 mph76%30.21 "HgN/A
4:50 PM45 °FPassing clouds.10 mph81%30.21 "HgN/A
4:20 PM41 °FSprinkles. Partly sunny.13 mph87%30.21 "HgN/A
3:50 PM45 °FMostly cloudy.10 mph76%30.21 "HgN/A
3:20 PM45 °FPartly sunny.12 mph76%30.21 "HgN/A
2:50 PM46 °FBroken clouds.13 mph71%30.18 "HgN/A
2:20 PM46 °FPartly sunny.12 mph66%30.21 "HgN/A
1:50 PM45 °FMostly cloudy.12 mph71%30.21 "HgN/A
1:20 PM46 °FLight rain. Partly sunny.12 mph66%30.21 "HgN/A
12:50 PM46 °FBroken clouds.12 mph66%30.24 "HgN/A
12:20 PM45 °FBroken clouds.8 mph76%30.24 "HgN/A
11:50 AM45 °FBroken clouds.8 mph76%30.24 "HgN/A
11:20 AM45 °FMostly cloudy.7 mph76%30.27 "HgN/A
10:50 AM43 °FOvercast.7 mph81%30.27 "HgN/A
10:20 AM45 °FPartly sunny.6 mph71%30.30 "HgN/A
9:50 AM43 °FPartly sunny.6 mph76%30.27 "HgN/A
9:20 AM43 °FPartly sunny.6 mph76%30.30 "HgN/A
8:50 AM41 °FPassing clouds.6 mph81%30.30 "HgN/A
8:20 AM41 °FPassing clouds.12 mph76%30.27 "HgN/A
7:50 AM41 °FPassing clouds.10 mph81%30.27 "HgN/A
7:20 AM41 °FPassing clouds.9 mph81%30.27 "HgN/A
Weather by CustomWeather, © 2014

See weather overviewHow to use our weather pages